• In Romania
  • List of Countries
  • For 7 days
  • Water Temperature
  • Satellite Maps
  • Weather Map
  • Weather Widgets
  • user-avatar
    Login

    Hourly Weather Koczanow

    Today, 24 October, Wednesday

    Time Temperature Precipitation Wind Pressure Humidity
    00:00 +7°C° 0.9 mm 9 mps 728 mmHg 81%
    01:00 +7°C° 0.9 mm 9 mps 727 mmHg 81%
    02:00 +7°C° 0.6 mm 9 mps 727 mmHg 80%
    03:00 +6°C° 0.6 mm 8 mps 726 mmHg 79%
    04:00 +6°C° 0.6 mm 8 mps 726 mmHg 77%
    05:00 +5°C° 0.2 mm 8 mps 726 mmHg 75%
    06:00 +5°C° 0.2 mm 9 mps 726 mmHg 73%
    07:00 +3°C° 0.2 mm 9 mps 727 mmHg 71%
    08:00 +5°C° 0.2 mm 10 mps 727 mmHg 65%
    09:00 +5°C° 0.2 mm 10 mps 728 mmHg 59%
    10:00 +4°C° 0.2 mm 11 mps 729 mmHg 54%
    11:00 +4°C° 0.1 mm 11 mps 729 mmHg 50%
    12:00 +4°C° 0.1 mm 11 mps 730 mmHg 46%
    13:00 +6°C° 0.1 mm 11 mps 730 mmHg 42%
    14:00 +5°C° 0 mm 10 mps 731 mmHg 44%
    15:00 +5°C° 0 mm 9 mps 731 mmHg 45%
    16:00 +5°C° 0 mm 8 mps 732 mmHg 46%
    17:00 +4°C° 0 mm 7 mps 732 mmHg 49%
    18:00 +3°C° 0 mm 7 mps 733 mmHg 52%
    19:00 +3°C° 0 mm 6 mps 734 mmHg 55%
    20:00 +3°C° 0 mm 6 mps 734 mmHg 57%
    21:00 +2°C° 0 mm 6 mps 735 mmHg 59%
    22:00 +2°C° 0 mm 6 mps 735 mmHg 60%
    23:00 +2°C° 0 mm 6 mps 736 mmHg 62%

    Tomorrow, 25 October, Thursday

    Time Temperature Precipitation Wind Pressure Humidity
    00:00 +2°C° 0 mm 6 mps 736 mmHg 63%
    01:00 +1°C° 0 mm 6 mps 736 mmHg 65%
    02:00 +1°C° 0 mm 6 mps 736 mmHg 69%
    03:00 +1°C° 0 mm 5 mps 736 mmHg 73%
    04:00 +1°C° 0 mm 5 mps 736 mmHg 78%
    05:00 +1°C° 0 mm 5 mps 736 mmHg 77%
    06:00 +1°C° 0 mm 5 mps 736 mmHg 77%
    07:00 +2°C° 0 mm 5 mps 736 mmHg 77%
    08:00 +2°C° 0.5 mm 5 mps 735 mmHg 78%
    09:00 +3°C° 0.5 mm 6 mps 734 mmHg 79%
    10:00 +4°C° 0.5 mm 6 mps 734 mmHg 80%
    11:00 +5°C° 0.3 mm 7 mps 733 mmHg 79%
    12:00 +7°C° 0.3 mm 8 mps 732 mmHg 78%
    13:00 +10°C° 0.3 mm 8 mps 732 mmHg 77%
    14:00 +10°C° 0.3 mm 8 mps 732 mmHg 79%
    15:00 +9°C° 0.3 mm 8 mps 731 mmHg 81%
    16:00 +9°C° 0.3 mm 8 mps 731 mmHg 83%
    17:00 +9°C° 0.2 mm 8 mps 732 mmHg 83%
    18:00 +9°C° 0.2 mm 8 mps 732 mmHg 82%
    19:00 +9°C° 0.2 mm 8 mps 733 mmHg 82%
    20:00 +8°C° 0.3 mm 7 mps 733 mmHg 81%
    21:00 +8°C° 0.3 mm 6 mps 733 mmHg 81%
    22:00 +7°C° 0.3 mm 6 mps 734 mmHg 80%
    23:00 +7°C° 0 mm 5 mps 734 mmHg 80%

    Day after tomorrow, 26 October, Friday

    Time Temperature Precipitation Wind Pressure Humidity
    00:00 +6°C° 0 mm 5 mps 734 mmHg 81%
    01:00 +5°C° 0 mm 5 mps 734 mmHg 81%
    02:00 +5°C° 0 mm 5 mps 734 mmHg 82%
    03:00 +5°C° 0 mm 4 mps 734 mmHg 83%
    04:00 +5°C° 0 mm 4 mps 734 mmHg 83%
    05:00 +5°C° 0 mm 4 mps 734 mmHg 84%
    06:00 +5°C° 0 mm 4 mps 734 mmHg 85%
    07:00 +5°C° 0 mm 4 mps 735 mmHg 85%
    08:00 +6°C° 0 mm 4 mps 735 mmHg 80%
    09:00 +8°C° 0 mm 4 mps 735 mmHg 75%
    10:00 +9°C° 0 mm 5 mps 735 mmHg 69%
    11:00 +9°C° 0 mm 5 mps 734 mmHg 69%
    12:00 +10°C° 0 mm 5 mps 734 mmHg 68%
    13:00 +12°C° 0 mm 4 mps 733 mmHg 67%
    14:00 +12°C° 0 mm 4 mps 733 mmHg 69%
    15:00 +11°C° 0 mm 4 mps 732 mmHg 70%
    16:00 +11°C° 0 mm 3 mps 732 mmHg 72%
    17:00 +10°C° 0 mm 3 mps 732 mmHg 75%
    18:00 +8°C° 0 mm 4 mps 731 mmHg 78%
    19:00 +8°C° 0 mm 4 mps 731 mmHg 81%
    20:00 +8°C° 0 mm 4 mps 731 mmHg 81%
    21:00 +8°C° 0 mm 4 mps 731 mmHg 82%
    22:00 +8°C° 0 mm 4 mps 731 mmHg 82%
    23:00 +8°C° 0 mm 4 mps 731 mmHg 82%

    27 October, Saturday

    Time Temperature Precipitation Wind Pressure Humidity
    00:00 +8°C° 0 mm 4 mps 731 mmHg 82%
    01:00 +7°C° 0 mm 4 mps 731 mmHg 82%
    02:00 +7°C° 0 mm 5 mps 731 mmHg 81%
    03:00 +7°C° 0 mm 5 mps 731 mmHg 80%
    04:00 +7°C° 0 mm 5 mps 731 mmHg 79%
    05:00 +6°C° 0 mm 5 mps 732 mmHg 76%
    06:00 +6°C° 0 mm 5 mps 732 mmHg 74%
    07:00 +6°C° 0 mm 5 mps 733 mmHg 71%
    08:00 +6°C° 0 mm 5 mps 733 mmHg 67%
    09:00 +7°C° 0 mm 5 mps 733 mmHg 62%
    10:00 +7°C° 0 mm 5 mps 734 mmHg 57%
    11:00 +7°C° 0 mm 4 mps 734 mmHg 55%
    12:00 +8°C° 0 mm 4 mps 734 mmHg 53%
    13:00 +8°C° 0 mm 4 mps 734 mmHg 51%
    14:00 +9°C° 0 mm 3 mps 734 mmHg 53%
    15:00 +8°C° 0 mm 3 mps 735 mmHg 55%
    16:00 +8°C° 0 mm 2 mps 735 mmHg 57%
    17:00 +7°C° 0 mm 2 mps 735 mmHg 59%
    18:00 +7°C° 0 mm 2 mps 736 mmHg 61%
    19:00 +8°C° 0 mm 1 mps 736 mmHg 63%
    20:00 +7°C° 0 mm 1 mps 736 mmHg 64%
    21:00 +7°C° 0 mm 1 mps 736 mmHg 66%
    22:00 +7°C° 0 mm 1 mps 736 mmHg 68%
    23:00 +7°C° 0.2 mm 1 mps 737 mmHg 71%

    28 October, Sunday

    Time Temperature Precipitation Wind Pressure Humidity
    00:00 +7°C° 0.2 mm 1 mps 737 mmHg 73%
    01:00 +6°C° 0.2 mm 1 mps 737 mmHg 76%
    02:00 +5°C° 0.2 mm 2 mps 737 mmHg 78%
    03:00 +5°C° 0.2 mm 2 mps 737 mmHg 80%
    04:00 +5°C° 0.2 mm 2 mps 737 mmHg 81%
    05:00 +4°C° 0.3 mm 3 mps 737 mmHg 82%
    06:00 +4°C° 0.3 mm 3 mps 737 mmHg 82%
    07:00 +4°C° 0.3 mm 3 mps 737 mmHg 83%
    08:00 +4°C° 0.3 mm 4 mps 737 mmHg 82%
    09:00 +3°C° 0.3 mm 5 mps 737 mmHg 80%
    10:00 +5°C° 0.3 mm 5 mps 737 mmHg 79%
    11:00 +5°C° 0.5 mm 5 mps 737 mmHg 81%
    12:00 +5°C° 0.5 mm 5 mps 737 mmHg 82%
    13:00 +4°C° 0.5 mm 6 mps 736 mmHg 84%
    14:00 +3°C° 1.2 mm 6 mps 736 mmHg 86%
    15:00 +3°C° 1.2 mm 5 mps 736 mmHg 88%
    16:00 +3°C° 1.2 mm 5 mps 736 mmHg 90%
    17:00 +3°C° 1.5 mm 5 mps 736 mmHg 91%
    18:00 +3°C° 1.5 mm 5 mps 735 mmHg 92%
    19:00 +3°C° 1.5 mm 5 mps 735 mmHg 92%
    20:00 +5°C° 0.8 mm 5 mps 735 mmHg 93%
    21:00 +5°C° 0.8 mm 5 mps 735 mmHg 93%
    22:00 +5°C° 0.8 mm 5 mps 734 mmHg 93%
    23:00 +5°C° 0.2 mm 5 mps 734 mmHg 94%

    29 October, Monday

    Time Temperature Precipitation Wind Pressure Humidity
    00:00 +5°C° 0.2 mm 4 mps 733 mmHg 94%
    01:00 +6°C° 0.2 mm 4 mps 733 mmHg 95%
    02:00 +6°C° 0.1 mm 4 mps 732 mmHg 94%
    03:00 +6°C° 0.1 mm 4 mps 732 mmHg 94%
    04:00 +7°C° 0.1 mm 4 mps 731 mmHg 94%
    05:00 +7°C° 0 mm 4 mps 731 mmHg 92%
    06:00 +8°C° 0 mm 4 mps 731 mmHg 90%
    07:00 +10°C° 0 mm 4 mps 730 mmHg 88%
    08:00 +10°C° 0.1 mm 5 mps 730 mmHg 84%
    09:00 +12°C° 0.1 mm 5 mps 730 mmHg 81%
    10:00 +13°C° 0.1 mm 5 mps 730 mmHg 78%
    11:00 +12°C° 0.1 mm 5 mps 729 mmHg 79%
    12:00 +12°C° 0.1 mm 4 mps 729 mmHg 81%
    13:00 +12°C° 0.1 mm 4 mps 729 mmHg 82%
    14:00 +12°C° 0.5 mm 4 mps 729 mmHg 84%
    15:00 +12°C° 0.5 mm 4 mps 729 mmHg 86%
    16:00 +12°C° 0.5 mm 3 mps 729 mmHg 88%
    17:00 +12°C° 0.1 mm 3 mps 729 mmHg 89%
    18:00 +11°C° 0.1 mm 3 mps 729 mmHg 90%
    19:00 +11°C° 0.1 mm 3 mps 729 mmHg 90%
    20:00 +11°C° 0 mm 3 mps 730 mmHg 90%
    21:00 +11°C° 0 mm 3 mps 730 mmHg 90%
    22:00 +11°C° 0 mm 3 mps 730 mmHg 90%
    23:00 +11°C° 0 mm 3 mps 730 mmHg 90%

    30 October, Tuesday

    Time Temperature Precipitation Wind Pressure Humidity
    00:00 +11°C° 0 mm 3 mps 730 mmHg 91%
    01:00 +11°C° 0 mm 3 mps 730 mmHg 91%
    02:00 +11°C° 0 mm 3 mps 730 mmHg 91%
    03:00 +11°C° 0 mm 3 mps 729 mmHg 91%
    04:00 +11°C° 0 mm 4 mps 729 mmHg 91%
    05:00 +11°C° 0 mm 4 mps 729 mmHg 89%
    06:00 +10°C° 0 mm 5 mps 729 mmHg 88%
    07:00 +12°C° 0 mm 5 mps 729 mmHg 87%
    08:00 +13°C° 0 mm 5 mps 730 mmHg 83%
    09:00 +14°C° 0 mm 6 mps 730 mmHg 78%
    10:00 +15°C° 0 mm 6 mps 730 mmHg 74%
    11:00 +15°C° 0.1 mm 6 mps 730 mmHg 75%
    12:00 +15°C° 0.1 mm 5 mps 730 mmHg 76%
    13:00 +15°C° 0.1 mm 5 mps 730 mmHg 77%
    14:00 +14°C° 0.9 mm 4 mps 729 mmHg 82%
    15:00 +14°C° 0.9 mm 3 mps 729 mmHg 87%
    16:00 +14°C° 0.9 mm 2 mps 729 mmHg 92%
    17:00 +14°C° 0.3 mm 2 mps 729 mmHg 93%
    18:00 +14°C° 0.3 mm 2 mps 729 mmHg 93%
    19:00 +13°C° 0.3 mm 2 mps 729 mmHg 94%
    20:00 +13°C° 1.8 mm 2 mps 728 mmHg 95%
    21:00 +13°C° 1.8 mm 1 mps 728 mmHg 95%
    22:00 +13°C° 1.8 mm 1 mps 728 mmHg 96%
    23:00 +12°C° 1.6 mm 3 mps 728 mmHg 95%
    Show more